TimeCDT,TemperatureF,Dew PointF,Humidity,Sea Level PressureIn,VisibilityMPH,Wind Direction,Wind SpeedMPH,Gust SpeedMPH,PrecipitationIn,Events,Conditions,WindDirDegrees,DateUTC
12:54 AM,78.1,69.1,74,29.95,10.0,WSW,10.4,-,N/A,,Clear,240,2013-08-28 05:54:00
1:54 AM,78.1,66.9,68,29.95,10.0,WSW,11.5,-,N/A,,Clear,240,2013-08-28 06:54:00
2:54 AM,77.0,66.0,69,29.95,10.0,WSW,10.4,-,N/A,,Clear,250,2013-08-28 07:54:00
3:54 AM,75.9,64.9,69,29.95,10.0,WSW,9.2,-,N/A,,Clear,240,2013-08-28 08:54:00
4:54 AM,75.9,64.0,67,29.96,10.0,WSW,11.5,16.1,N/A,,Clear,250,2013-08-28 09:54:00
5:54 AM,73.9,64.0,71,29.97,10.0,SW,9.2,-,N/A,,Clear,230,2013-08-28 10:54:00
6:54 AM,73.9,64.9,73,29.99,10.0,WSW,9.2,-,N/A,,Clear,240,2013-08-28 11:54:00
7:54 AM,77.0,64.9,66,29.99,10.0,West,10.4,-,N/A,,Clear,260,2013-08-28 12:54:00
8:54 AM,81.0,64.9,58,29.99,10.0,West,10.4,-,N/A,,Clear,270,2013-08-28 13:54:00
9:54 AM,86.0,66.0,51,29.99,10.0,WNW,11.5,-,N/A,,Partly Cloudy,290,2013-08-28 14:54:00
10:54 AM,89.1,66.0,46,29.98,10.0,WNW,11.5,-,N/A,,Clear,290,2013-08-28 15:54:00
11:54 AM,91.9,66.9,44,29.97,10.0,West,12.7,-,N/A,,Clear,260,2013-08-28 16:54:00
12:54 PM,93.0,66.0,41,29.96,10.0,West,12.7,-,N/A,,Clear,270,2013-08-28 17:54:00
1:54 PM,93.9,68.0,43,29.97,10.0,WNW,10.4,18.4,N/A,,Clear,300,2013-08-28 18:54:00
2:54 PM,93.9,68.0,43,29.95,10.0,West,10.4,19.6,N/A,,Clear,270,2013-08-28 19:54:00
3:54 PM,93.9,68.0,43,29.95,10.0,West,12.7,18.4,N/A,,Clear,280,2013-08-28 20:54:00
4:54 PM,93.0,69.1,45,29.95,10.0,West,11.5,-,N/A,,Clear,280,2013-08-28 21:54:00
5:54 PM,93.0,69.1,45,29.95,10.0,West,9.2,-,N/A,,Clear,280,2013-08-28 22:54:00
6:54 PM,90.0,69.1,50,29.95,10.0,West,4.6,-,N/A,,Clear,260,2013-08-28 23:54:00
7:54 PM,84.9,72.0,65,29.96,10.0,WSW,4.6,-,N/A,,Clear,240,2013-08-29 00:54:00
8:54 PM,84.9,72.0,65,29.97,10.0,West,5.8,-,N/A,,Mostly Cloudy,260,2013-08-29 01:54:00
9:54 PM,84.0,72.0,67,29.98,10.0,NNW,5.8,-,N/A,,Mostly Cloudy,340,2013-08-29 02:54:00
10:54 PM,78.1,73.9,87,29.99,7.0,ENE,4.6,-,N/A,,Mostly Cloudy,60,2013-08-29 03:54:00
11:54 PM,77.0,73.0,88,30.00,4.0,NE,4.6,-,N/A,,Overcast,50,2013-08-29 04:54:00